Orbital Elements at Epoch 2459200.5 (2020-Dec-17.0) TDB
Reference: JPL 21 (heliocentric ecliptic J2000)
Element | Value | Uncertainty (1-sigma) | Units |
e | .1137406005634903 | 5.5543e-08 | |
a | 3.112942492154232 | 3.994e-08 | au |
q | 2.758874543577002 | 1.7176e-07 | au |
i | 24.01907881452794 | 5.8885e-06 | deg |
node | 100.8475506254562 | 1.5205e-05 | deg |
peri | 264.896351083196 | 3.3952e-05 | deg |
M | 26.96871311709697 | 2.7253e-05 | deg |
tp | 2459050.215982614553 (2020-Jul-19.71598261) | 0.00015291 | TDB |
period | 2006.11152722977 5.49 | 3.8609e-05 1.057e-07 | d yr |
n | .1794516382133163 | 3.4536e-09 | deg/d |
Q | 3.467010440731463 | 4.4483e-08 | au |
|
| | Orbit Determination Parameters
Additional Information
|